KF5FGL Weather Reports


time (UTC)temp
F
wind
direction
speed
knots
gust
knots
rain 1hr
in
rain 24hr
in
rain mn
in
humidity
%
barometer
mb
20220811233116 78 278 0.0 0.0 0.01 0.45 0.45 88 1011.5
20220811231600 78 279 0.0 0.9 0.01 0.45 0.45 89 1011.5
20220811231501 78 277 0.0 1.7 0.01 0.45 0.45 89 1012.9
20220811230100 76 290 0.9 7.0 0.13 0.45 0.45 90 1011.5
20220811230001 76 256 1.7 5.2 0.17 0.45 0.45 90 1012.9
20220811224615 75 258 0.9 7.8 0.45 0.45 0.45 90 1011.7
20220811224501 76 240 2.6 7.8 0.45 0.45 0.45 90 1013.0
20220811223013 75 227 2.6 8.7 0.44 0.44 0.44 89 1011.7
20220811221511 76 213 3.5 8.7 0.44 0.44 0.44 86 1012.0
20220811221501 77 227 2.6 8.7 0.44 0.44 0.44 86 1013.4
20220811220009 79 333 3.5 20.0 0.28 0.28 0.28 77 1012.8
20220811214510 98 339 4.3 10.4 0.00 0.00 0.00 40 1011.1
20220811214502 98 9 1.7 10.4 0.00 0.00 0.00 40 1012.5
20220811213009 101 185 0.0 1.7 0.00 0.00 0.00 38 1010.6
20220811213001 101 98 0.0 1.7 0.00 0.00 0.00 38 1012.1
20220811211511 99 119 0.0 6.1 0.00 0.00 0.00 38 1010.9
20220811211501 100 101 0.9 6.1 0.00 0.00 0.00 38 1012.5
20220811210009 100 85 0.0 7.8 0.00 0.00 0.00 37 1011.0
20220811210002 101 104 1.7 7.8 0.00 0.00 0.00 37 1012.5
20220811204517 102 238 0.0 4.3 0.00 0.00 0.00 34 1011.3
20220811204502 102 315 0.9 4.3 0.00 0.00 0.00 34 1012.8
20220811203010 103 292 0.0 3.5 0.00 0.00 0.00 34 1011.5
20220811203001 103 249 0.0 3.5 0.00 0.00 0.00 34 1013.0
20220811201510 99 46 0.0 3.5 0.00 0.00 0.00 37 1011.9
20220811201502 100 76 0.9 4.3 0.00 0.00 0.00 37 1013.2
20220811200012 98 271 1.7 6.1 0.00 0.00 0.00 39 1012.1
20220811194509 99 76 0.0 3.5 0.00 0.00 0.00 39 1012.4
20220811193010 99 79 0.0 5.2 0.00 0.00 0.00 39 1012.7
20220811193002 100 27 0.9 4.3 0.00 0.00 0.00 39 1014.2
20220811191518 96 360 0.0 7.0 0.00 0.00 0.00 41 1013.0
20220811191501 97 13 1.7 5.2 0.00 0.00 0.00 41 1014.6
20220811190010 96 337 0.0 6.1 0.00 0.00 0.00 44 1013.4
20220811184511 95 82 0.0 6.1 0.00 0.00 0.00 45 1013.6
20220811184502 96 91 0.9 7.0 0.00 0.00 0.00 45 1015.1
20220811183014 95 37 0.0 4.3 0.00 0.00 0.00 47 1014.0
20220811183002 95 260 0.9 4.3 0.00 0.00 0.00 47 1015.5
20220811181509 94 130 0.0 6.1 0.00 0.00 0.00 50 1014.2
20220811181502 95 91 0.0 6.1 0.00 0.00 0.00 50 1015.7
20220811180021 92 71 0.9 5.2 0.00 0.00 0.00 53 1014.6
20220811174526 91 344 0.0 7.8 0.00 0.00 0.00 55 1014.9
20220811173019 90 157 0.0 5.2 0.00 0.00 0.00 57 1015.2
20220811173002 91 53 0.9 5.2 0.00 0.00 0.00 58 1016.8
20220811171512 90 275 0.0 1.7 0.00 0.00 0.00 58 1015.5
20220811171502 90 280 0.0 1.7 0.00 0.00 0.00 58 1016.9
20220811170013 88 282 0.0 3.5 0.00 0.00 0.00 61 1015.7
20220811164519 89 113 0.0 2.6 0.00 0.00 0.00 62 1015.7
20220811164502 89 112 0.0 2.6 0.00 0.00 0.00 62 1017.2
20220811163105 89 285 0.0 1.7 0.00 0.00 0.00 61 1015.7
20220811163002 90 321 0.0 1.7 0.00 0.00 0.00 60 1017.2
20220811161603 89 312 0.0 2.6 0.00 0.00 0.00 63 1015.6
20220811161502 89 179 0.9 2.6 0.00 0.00 0.00 63 1017.0
20220811160105 88 84 0.0 2.6 0.00 0.00 0.00 63 1015.6
20220811154635 87 26 0.9 6.1 0.00 0.00 0.00 67 1015.6
20220811154503 87 66 0.9 6.1 0.00 0.00 0.00 67 1017.1
20220811153119 85 113 1.7 3.5 0.00 0.00 0.00 69 1015.5
20220811153002 86 71 0.9 4.3 0.00 0.00 0.00 69 1016.9
20220811151607 86 38 0.9 6.1 0.00 0.00 0.00 69 1015.5
20220811151502 86 50 1.7 6.1 0.00 0.00 0.00 69 1016.9
20220811150101 86 113 0.0 3.5 0.00 0.00 0.00 68 1015.4
20220811144602 88 143 0.0 1.7 0.00 0.00 0.00 64 1015.6
20220811144502 88 140 0.0 1.7 0.00 0.00 0.00 64 1017.1
20220811143108 86 209 0.0 3.5 0.00 0.00 0.00 66 1015.4
20220811141605 85 206 0.0 2.6 0.00 0.00 0.00 69 1015.4
20220811141503 86 203 0.0 2.6 0.00 0.00 0.00 70 1016.8
20220811140104 84 94 0.0 2.6 0.00 0.00 0.00 73 1015.3
20220811140002 84 84 0.0 2.6 0.00 0.00 0.00 73 1016.8
20220811134602 82 11 0.0 0.0 0.00 0.00 0.00 76 1015.2
20220811134503 83 0 0.0 0.0 0.00 0.00 0.00 76 1016.7
20220811133115 81 11 0.0 3.5 0.00 0.00 0.00 78 1015.2
20220811133003 81 53 0.0 2.6 0.00 0.00 0.00 78 1016.7
20220811131621 80 163 0.0 0.9 0.00 0.00 0.00 78 1015.1
20220811131502 81 189 0.0 0.9 0.00 0.00 0.00 78 1016.6
20220811130003 79 0 0.0 0.0 0.00 0.00 0.00 82 1016.4
20220811130001 79 206 0.0 0.0 0.00 0.00 0.00 82 1014.9
20220811124506 78 223 0.0 0.0 0.00 0.00 0.00 82 1014.9
20220811123014 78 223 0.0 0.0 0.00 0.00 0.00 83 1014.7
20220811121511 77 223 0.0 0.0 0.00 0.00 0.00 86 1014.6
20220811121503 77 0 0.0 0.0 0.00 0.00 0.00 86 1016.1
20220811120011 76 223 0.0 0.0 0.00 0.00 0.00 85 1014.6
20220811114509 76 223 0.0 0.0 0.00 0.00 0.00 84 1014.5
20220811114503 77 0 0.0 0.0 0.00 0.00 0.00 84 1015.9
20220811113018 77 223 0.0 0.0 0.00 0.00 0.00 83 1014.3
20220811113003 77 0 0.0 0.0 0.00 0.00 0.00 83 1015.8
20220811111511 77 223 0.0 0.0 0.00 0.00 0.00 83 1014.3
20220811111503 77 0 0.0 0.0 0.00 0.00 0.00 83 1015.7
20220811110012 77 223 0.0 0.0 0.00 0.00 0.00 83 1014.3
20220811110003 78 0 0.0 0.0 0.00 0.00 0.00 83 1015.7
20220811104512 77 223 0.0 1.7 0.00 0.00 0.00 83 1014.4
20220811104503 78 224 0.0 1.7 0.00 0.00 0.00 83 1015.9
20220811103017 77 223 0.0 3.5 0.00 0.00 0.00 82 1014.3
20220811101519 77 246 0.0 3.5 0.00 0.00 0.00 82 1014.4
20220811101503 78 241 0.0 3.5 0.00 0.00 0.00 82 1015.9
20220811100011 77 232 0.0 3.5 0.00 0.00 0.00 82 1014.5
20220811094513 78 188 0.0 1.7 0.00 0.00 0.00 80 1014.6
20220811093026 78 188 0.0 2.6 0.00 0.00 0.00 80 1014.7
20220811091526 78 223 0.0 2.6 0.00 0.00 0.00 82 1014.8
20220811091503 78 224 0.0 2.6 0.00 0.00 0.00 82 1016.3
20220811090011 77 243 0.0 5.2 0.00 0.00 0.00 81 1014.9
20220811084511 78 252 0.0 2.6 0.00 0.00 0.00 80 1014.9
20220811084503 78 221 0.0 2.6 0.00 0.00 0.00 80 1016.4
20220811083011 78 203 0.0 1.7 0.00 0.00 0.00 79 1015.2
20220811081533 79 202 0.0 1.7 0.00 0.00 0.00 78 1015.3
20220811080011 79 124 0.0 0.0 0.00 0.00 0.00 79 1015.3
20220811080003 79 0 0.0 0.0 0.00 0.00 0.00 79 1016.7
20220811074513 79 107 0.0 0.0 0.00 0.00 0.00 78 1015.4
20220811074503 79 0 0.0 0.0 0.00 0.00 0.00 78 1016.9
20220811073010 80 107 0.0 0.9 0.00 0.00 0.00 76 1015.4
20220811071533 80 107 0.0 0.0 0.00 0.00 0.00 75 1015.6
20220811071503 80 0 0.0 0.0 0.00 0.00 0.00 75 1017.1
20220811070011 79 107 0.0 0.0 0.00 0.00 0.00 76 1016.0
20220811064520 80 107 0.0 0.0 0.00 0.00 0.00 75 1016.1
20220811064503 80 0 0.0 0.0 0.00 0.00 0.00 75 1017.6
20220811063021 81 107 0.0 0.0 0.00 0.00 0.00 73 1016.3
20220811063003 81 0 0.0 0.0 0.00 0.00 0.00 73 1017.7
20220811061514 81 107 0.0 0.0 0.00 0.00 0.00 73 1016.2
20220811061504 81 0 0.0 0.0 0.00 0.00 0.00 73 1017.7
20220811060014 80 107 0.0 0.0 0.00 0.00 0.00 74 1016.2
20220811060004 80 0 0.0 0.0 0.00 0.00 0.00 74 1017.6
20220811054511 81 107 0.0 0.0 0.00 0.00 0.00 72 1016.1
20220811053011 82 107 0.0 0.9 0.00 0.00 0.00 71 1016.0
20220811051516 80 107 0.0 1.7 0.00 0.00 0.00 73 1015.7
20220811051503 81 110 0.0 1.7 0.00 0.00 0.00 73 1017.2
20220811050029 82 98 0.0 0.9 0.00 0.00 0.00 71 1015.8
20220811050004 82 97 0.0 0.9 0.00 0.00 0.00 71 1017.3
20220811044510 82 112 0.0 7.0 0.00 0.00 0.00 71 1016.0
20220811043023 81 99 0.9 6.1 0.00 0.00 0.00 72 1016.3
20220811041512 83 98 0.9 7.8 0.00 0.00 0.00 69 1016.7
20220811041504 83 113 1.7 7.8 0.00 0.00 0.00 69 1018.2
20220811040020 82 115 2.6 9.6 0.00 0.00 0.00 69 1016.4
20220811034529 84 130 1.7 9.6 0.00 0.00 0.00 66 1016.2
20220811033016 83 75 1.7 8.7 0.00 0.00 0.00 67 1016.4
20220811030140 85 90 0.9 7.8 0.00 0.00 0.00 65 1015.6
20220811024620 85 56 1.7 7.0 0.00 0.00 0.00 63 1015.2
20220811024504 86 88 1.7 7.0 0.00 0.00 0.00 63 1016.7
20220811023040 87 62 0.9 6.1 0.00 0.00 0.00 60 1014.7
20220811021537 87 83 0.9 4.3 0.00 0.00 0.00 60 1014.3
20220811020021 88 11 1.7 7.8 0.00 0.00 0.00 57 1014.4
20220811014520 87 11 1.7 9.6 0.00 0.00 0.00 59 1014.1
20220811013002 88 355 3.5 9.6 0.00 0.00 0.00 57 1013.7
20220811011507 89 5 3.5 12.2 0.00 0.00 0.00 56 1013.6
20220811011500 89 23 5.2 12.2 0.00 0.00 0.00 56 1015.0
20220811010113 89 20 7.0 17.4 0.00 0.00 0.00 54 1013.4
20220811004601 92 55 7.8 17.4 0.00 0.00 0.00 49 1012.8
20220811003112 100 5 1.7 5.2 0.00 0.00 0.00 34 1012.5
20220811001611 101 111 0.0 2.6 0.00 0.00 0.00 33 1012.1
20220811000059 102 170 0.0 2.6 0.00 0.00 0.00 33 1012.0
20220810234559 102 169 0.0 1.7 0.00 0.00 0.00 32 1012.0